Weather History for Dallas/Ft Worth, TX

Change the Weather History Date:

Thursday, October 10, 2013

  Actual Average Record
Temperature  
Mean Temperature 72 °F 69 °F  
Max Temperature 85 °F 80 °F 95 °F (1975)
Min Temperature 59 °F 59 °F 39 °F (2000)
Degree Days  
Heating Degree Days 0 1  
Month to date heating degree days 1 10  
Since 1 July heating degree days 1 16  
Cooling Degree Days 7 6  
Month to date cooling degree days 86 68  
Year to date cooling degree days 2846 2645  
Growing Degree Days 22 (Base 50)    
Moisture  
Dew Point 58 °F    
Average Humidity 62    
Maximum Humidity 84    
Minimum Humidity 40    
Precipitation  
Precipitation 0.00 in 0.12 in 1.64 in (1919)
Month to date precipitation 0.25 1.09  
Year to date precipitation 21.64 27.75  
Snow  
Snow 0.00 in 0.00 in 0.00 in ()
Month to date snowfall 0.0 0.0  
Since 1 July snowfall 0.0 0.0  
Since 1 September snowfall 0.0 0.0  
Snow Depth 0.00 in    
Sea Level Pressure  
Sea Level Pressure 29.95 in    
Wind  
Wind Speed 10 mph (SSE)    
Max Wind Speed 20 mph    
Max Gust Speed 24 mph    
Visibility 10 miles    
Events      
T = Trace of Precipitation, MM = Missing Value Source: NWS Daily Summary

Daily Weather History Graph

Daily Weather History Graph

Search for Another Location

Airport:

Trip Planner

Search our weather history database for the weather conditions in past years. The results will help you decide how hot, cold, wet, or windy it might be!

Date:

Astronomy

Oct. 10, 2013 Rise Set
Actual Time 7:28 AM CDT 7:00 PM CDT
Civil Twilight 7:04 AM CDT 7:25 PM CDT
Nautical Twilight 6:35 AM CDT 7:54 PM CDT
Astronomical Twilight 6:06 AM CDT 8:22 PM CDT
Moon 1:09 PM CDT (10/10) 11:51 PM CDT (10/10)
Length of Visible Light 12h 21m
Length of Day
11h 31m
Waxing Crescent, 36% of the Moon is Illuminated
Oct 10
Waxing Crescent
Oct 11
First Quarter
Oct 18
Full
Oct 26
Last Quarter
Nov 3
New

Hourly Weather History & Observations

Time (CDT) Temp. Heat Index Dew Point Humidity Pressure Visibility Wind Dir Wind Speed Gust Speed Precip Events Conditions
12:53 AM 64.0 °F - 55.0 °F 73% 30.00 in 10.0 mi SSE 4.6 mph - N/A   Clear
1:53 AM 64.9 °F - 55.0 °F 70% 30.00 in 10.0 mi ESE 3.5 mph - N/A   Clear
2:53 AM 63.0 °F - 54.0 °F 72% 30.01 in 10.0 mi Calm Calm - N/A   Clear
3:53 AM 62.1 °F - 54.0 °F 75% 29.99 in 10.0 mi SSE 6.9 mph - N/A   Clear
4:53 AM 64.0 °F - 55.9 °F 75% 29.99 in 10.0 mi SSE 9.2 mph - N/A   Clear
5:53 AM 63.0 °F - 57.0 °F 81% 30.01 in 10.0 mi SSE 6.9 mph - N/A   Partly Cloudy
6:53 AM 60.1 °F - 55.9 °F 86% 30.01 in 10.0 mi ESE 6.9 mph - N/A   Scattered Clouds
7:53 AM 61.0 °F - 55.9 °F 83% 30.01 in 10.0 mi Calm Calm - N/A   Mostly Cloudy
8:53 AM 64.9 °F - 57.9 °F 78% 30.03 in 10.0 mi ESE 4.6 mph - N/A   Scattered Clouds
9:53 AM 72.0 °F - 61.0 °F 68% 30.04 in 10.0 mi South 10.4 mph - N/A   Scattered Clouds
10:53 AM 77.0 °F - 62.1 °F 60% 30.03 in 10.0 mi South 12.7 mph - N/A   Partly Cloudy
11:53 AM 78.1 °F - 61.0 °F 56% 30.01 in 10.0 mi South 11.5 mph - N/A   Scattered Clouds
12:53 PM 80.1 °F 81.1 °F 61.0 °F 52% 30.00 in 10.0 mi SSW 11.5 mph - N/A   Scattered Clouds
1:53 PM 82.9 °F 82.8 °F 59.0 °F 44% 29.95 in 10.0 mi SSE 16.1 mph - N/A   Scattered Clouds
2:53 PM 84.9 °F 84.4 °F 59.0 °F 41% 29.92 in 10.0 mi SSE 10.4 mph 20.7 mph N/A   Scattered Clouds
3:53 PM 84.9 °F 84.4 °F 59.0 °F 41% 29.90 in 10.0 mi South 12.7 mph - N/A   Scattered Clouds
4:53 PM 84.0 °F 83.5 °F 57.9 °F 41% 29.88 in 10.0 mi South 16.1 mph 19.6 mph N/A   Partly Cloudy
5:53 PM 82.0 °F 82.0 °F 57.9 °F 44% 29.87 in 10.0 mi SSE 17.3 mph - N/A   Partly Cloudy
6:53 PM 80.1 °F 80.6 °F 57.9 °F 47% 29.87 in 10.0 mi SSE 13.8 mph - N/A   Partly Cloudy
7:53 PM 78.1 °F - 57.9 °F 50% 29.87 in 10.0 mi SE 12.7 mph - N/A   Clear
8:53 PM 75.9 °F - 59.0 °F 56% 29.88 in 10.0 mi SE 11.5 mph - N/A   Clear
9:53 PM 75.0 °F - 60.1 °F 60% 29.87 in 10.0 mi SE 12.7 mph - N/A   Clear
10:53 PM 75.0 °F - 59.0 °F 57% 29.87 in 10.0 mi SE 12.7 mph - N/A   Clear
11:53 PM 73.9 °F - 60.1 °F 62% 29.86 in 10.0 mi SSE 13.8 mph - N/A   Clear